{"data":{"norad_id":56504,"epoch":"2026-09-20T05:43:28.771680Z","epoch_age_seconds":137460,"freshness":"FRESH","line1":"1 56504U 23065B   26263.23852745 -.00000241  00000+0  76719-6 0  9994","line2":"2 56504  43.0016 193.7610 0001017 248.3690 111.7053 15.27577541186359","mean_motion":15.27577541,"eccentricity":0.0001017,"inclination_deg":43.0016,"raan_deg":193.761,"arg_perigee_deg":248.369,"mean_anomaly_deg":111.7053,"bstar":7.6719e-7,"rev_number":18635,"period_min":94.266900458443,"perigee_km":482.35867580535,"apogee_km":483.75424255495,"semimajor_km":6861.1934591802,"source":"CELESTRAK","updated_at":"2026-09-21T09:00:33.469087Z"}}